Time,TemperatureF,DewpointF,PressureIn,WindDirection,WindDirectionDegrees,WindSpeedMPH,WindSpeedGustMPH,Humidity,HourlyPrecipIn,Conditions,Clouds,dailyrainin,SoftwareType,DateUTC
2013-01-29 00:00:00,48.1,44.1,30.08,West,269,0.0,0.0,86,0.01,,---,0.01,VWS V14.01,2013-01-29 05:00:00,
2013-01-29 00:01:00,48.0,44.0,30.08,West,267,0.0,0.0,86,0.01,,---,0.01,VWS V14.01,2013-01-29 05:01:00,
2013-01-29 00:02:00,48.0,44.0,30.08,NW,326,2.0,2.0,86,0.01,,---,0.00,VWS V14.01,2013-01-29 05:02:00,
2013-01-29 00:03:00,48.1,44.1,30.08,SE,139,2.0,2.0,86,0.01,,---,0.00,VWS V14.01,2013-01-29 05:03:00,
2013-01-29 00:08:00,48.3,44.0,30.08,WSW,240,0.0,0.0,85,0.01,,---,0.00,VWS V14.01,2013-01-29 05:08:00,
2013-01-29 00:13:00,48.4,44.1,30.08,SW,228,0.0,0.0,85,0.01,,---,0.00,VWS V14.01,2013-01-29 05:13:00,
2013-01-29 00:19:00,48.4,44.1,30.08,SSW,211,0.0,0.0,85,0.01,,---,0.00,VWS V14.01,2013-01-29 05:19:00,
2013-01-29 00:24:00,48.3,44.0,30.08,ESE,117,0.0,1.0,85,0.01,,---,0.00,VWS V14.01,2013-01-29 05:24:00,
2013-01-29 00:29:00,48.3,44.0,30.08,SSW,211,0.0,0.0,85,0.00,,---,0.00,VWS V14.01,2013-01-29 05:29:00,
2013-01-29 00:34:00,48.3,44.0,30.08,SSW,207,0.0,1.0,85,0.00,,---,0.00,VWS V14.01,2013-01-29 05:34:00,
2013-01-29 00:39:00,48.5,44.2,30.08,ENE,58,3.0,3.0,85,0.00,,---,0.00,VWS V14.01,2013-01-29 05:39:00,
2013-01-29 00:44:00,48.6,44.3,30.08,WSW,243,0.0,1.0,85,0.00,,---,0.00,VWS V14.01,2013-01-29 05:44:00,
2013-01-29 00:49:00,48.5,44.2,30.08,SW,221,1.0,1.0,85,0.00,,---,0.00,VWS V14.01,2013-01-29 05:49:00,
2013-01-29 00:54:00,48.5,44.5,30.08,SW,224,1.0,1.0,86,0.00,,---,0.00,VWS V14.01,2013-01-29 05:54:00,
2013-01-29 00:59:00,48.8,44.8,30.08,ENE,70,1.0,1.0,86,0.00,,---,0.00,VWS V14.01,2013-01-29 05:59:00,
2013-01-29 01:04:00,49.1,44.8,30.07,WSW,240,0.0,0.0,85,0.00,,---,0.00,VWS V14.01,2013-01-29 06:04:00,
2013-01-29 01:09:00,49.1,44.8,30.07,SSW,208,0.0,1.0,85,0.00,,---,0.00,VWS V14.01,2013-01-29 06:09:00,
2013-01-29 01:15:00,49.2,44.9,30.07,WSW,255,0.0,0.0,85,0.00,,---,0.00,VWS V14.01,2013-01-29 06:15:00,
2013-01-29 01:20:00,48.9,44.6,30.07,WSW,240,0.0,0.0,85,0.00,,---,0.00,VWS V14.01,2013-01-29 06:20:00,
2013-01-29 01:26:00,48.8,44.8,30.07,SSW,201,0.0,1.0,86,0.00,,---,0.00,VWS V14.01,2013-01-29 06:26:00,
2013-01-29 01:31:00,49.1,44.8,30.08,WSW,255,0.0,0.0,85,0.00,,---,0.00,VWS V14.01,2013-01-29 06:31:00,
2013-01-29 01:36:00,49.2,44.9,30.08,SW,225,1.0,1.0,85,0.00,,---,0.00,VWS V14.01,2013-01-29 06:36:00,
2013-01-29 01:41:00,49.1,44.8,30.08,WSW,245,0.0,1.0,85,0.00,,---,0.00,VWS V14.01,2013-01-29 06:41:00,
2013-01-29 01:46:00,49.2,44.9,30.08,SW,229,0.0,1.0,85,0.00,,---,0.00,VWS V14.01,2013-01-29 06:46:00,
2013-01-29 01:51:00,49.1,44.8,30.08,SW,229,0.0,0.0,85,0.00,,---,0.00,VWS V14.01,2013-01-29 06:51:00,
2013-01-29 01:56:00,49.1,45.1,30.08,WNW,297,0.0,1.0,86,0.00,,---,0.00,VWS V14.01,2013-01-29 06:56:00,
2013-01-29 02:02:00,49.1,45.1,30.08,West,260,0.0,1.0,86,0.00,,---,0.00,VWS V14.01,2013-01-29 07:02:00,
2013-01-29 02:07:00,49.3,45.3,30.08,SE,146,0.0,1.0,86,0.00,,---,0.00,VWS V14.01,2013-01-29 07:07:00,
2013-01-29 02:12:00,49.3,45.3,30.08,SW,217,0.0,1.0,86,0.00,,---,0.00,VWS V14.01,2013-01-29 07:12:00,
2013-01-29 02:17:00,49.3,45.3,30.08,NNW,338,3.0,3.0,86,0.00,,---,0.00,VWS V14.01,2013-01-29 07:17:00,
2013-01-29 02:23:00,49.5,45.5,30.08,ENE,64,0.0,0.0,86,0.00,,---,0.00,VWS V14.01,2013-01-29 07:23:00,
2013-01-29 02:28:00,49.4,45.4,30.08,ENE,64,0.0,0.0,86,0.00,,---,0.00,VWS V14.01,2013-01-29 07:28:00,
2013-01-29 02:33:00,49.3,45.3,30.08,SE,146,0.0,0.0,86,0.00,,---,0.00,VWS V14.01,2013-01-29 07:33:00,
2013-01-29 02:38:00,49.4,45.4,30.08,WNW,288,0.0,0.0,86,0.00,,---,0.00,VWS V14.01,2013-01-29 07:38:00,
2013-01-29 02:43:00,49.6,45.6,30.08,SSW,198,0.0,2.0,86,0.00,,---,0.00,VWS V14.01,2013-01-29 07:43:00,
2013-01-29 02:48:00,49.6,45.6,30.08,SSW,197,0.0,0.0,86,0.00,,---,0.00,VWS V14.01,2013-01-29 07:48:00,
2013-01-29 02:53:00,49.7,45.7,30.08,SSW,193,0.0,1.0,86,0.00,,---,0.00,VWS V14.01,2013-01-29 07:53:00,
2013-01-29 02:58:00,49.7,45.7,30.08,South,184,0.0,1.0,86,0.00,,---,0.00,VWS V14.01,2013-01-29 07:58:00,
2013-01-29 03:03:00,49.7,45.7,30.08,ENE,70,0.0,0.0,86,0.00,,---,0.00,VWS V14.01,2013-01-29 08:03:00,
2013-01-29 03:08:00,49.7,45.7,30.08,ESE,102,1.0,2.0,86,0.00,,---,0.00,VWS V14.01,2013-01-29 08:08:00,
2013-01-29 03:13:00,49.6,45.9,30.08,SSW,207,0.0,1.0,87,0.00,,---,0.00,VWS V14.01,2013-01-29 08:13:00,
2013-01-29 03:18:00,49.6,45.9,30.08,WSW,250,0.0,1.0,87,0.00,,---,0.00,VWS V14.01,2013-01-29 08:18:00,
2013-01-29 03:23:00,49.5,45.8,30.08,SSW,210,0.0,0.0,87,0.00,,---,0.00,VWS V14.01,2013-01-29 08:23:00,
2013-01-29 03:28:00,49.5,45.8,30.08,North,350,0.0,2.0,87,0.00,,---,0.00,VWS V14.01,2013-01-29 08:28:00,
2013-01-29 03:33:00,49.9,46.2,30.08,SW,229,0.0,2.0,87,0.00,,---,0.00,VWS V14.01,2013-01-29 08:33:00,
2013-01-29 03:38:00,49.8,46.1,30.08,SW,234,0.0,1.0,87,0.00,,---,0.00,VWS V14.01,2013-01-29 08:38:00,
2013-01-29 03:43:00,49.9,46.2,30.08,WSW,256,2.0,2.0,87,0.00,,---,0.00,VWS V14.01,2013-01-29 08:43:00,
2013-01-29 03:48:00,49.9,46.2,30.08,South,188,1.0,2.0,87,0.00,,---,0.00,VWS V14.01,2013-01-29 08:48:00,
2013-01-29 03:53:00,50.2,46.5,30.08,NNW,331,0.0,1.0,87,0.00,,---,0.00,VWS V14.01,2013-01-29 08:53:00,
2013-01-29 03:58:00,50.2,46.5,30.08,SSE,167,0.0,0.0,87,0.00,,---,0.00,VWS V14.01,2013-01-29 08:58:00,
2013-01-29 04:03:00,50.1,46.4,30.08,SW,215,0.0,0.0,87,0.00,,---,0.00,VWS V14.01,2013-01-29 09:03:00,
2013-01-29 04:08:00,50.0,46.6,30.08,NNE,18,0.0,2.0,88,0.00,,---,0.00,VWS V14.01,2013-01-29 09:08:00,
2013-01-29 04:13:00,50.2,46.8,30.07,West,271,0.0,0.0,88,0.00,,---,0.00,VWS V14.01,2013-01-29 09:13:00,
2013-01-29 04:18:00,50.4,47.0,30.07,SSW,204,0.0,0.0,88,0.00,,---,0.00,VWS V14.01,2013-01-29 09:18:00,
2013-01-29 04:24:00,50.5,47.1,30.08,South,174,0.0,0.0,88,0.00,,---,0.00,VWS V14.01,2013-01-29 09:24:00,
2013-01-29 04:29:00,50.5,47.1,30.08,SSE,149,2.0,4.0,88,0.00,,---,0.00,VWS V14.01,2013-01-29 09:29:00,
2013-01-29 04:34:00,50.6,47.5,30.07,West,263,3.0,3.0,89,0.00,,---,0.00,VWS V14.01,2013-01-29 09:34:00,
2013-01-29 04:39:00,50.9,47.5,30.08,South,187,1.0,1.0,88,0.00,,---,0.00,VWS V14.01,2013-01-29 09:39:00,
2013-01-29 04:44:00,50.8,47.4,30.08,WNW,303,2.0,2.0,88,0.00,,---,0.00,VWS V14.01,2013-01-29 09:44:00,
2013-01-29 04:49:00,51.0,47.3,30.08,South,173,0.0,0.0,87,0.00,,---,0.00,VWS V14.01,2013-01-29 09:49:00,
2013-01-29 04:54:00,50.9,46.9,30.08,SW,236,0.0,0.0,86,0.00,,---,0.00,VWS V14.01,2013-01-29 09:54:00,
2013-01-29 04:59:00,50.7,46.7,30.08,NW,314,1.0,1.0,86,0.00,,---,0.00,VWS V14.01,2013-01-29 09:59:00,
2013-01-29 05:04:00,50.5,46.8,30.08,West,259,1.0,2.0,87,0.00,,---,0.00,VWS V14.01,2013-01-29 10:04:00,
2013-01-29 05:09:00,50.3,46.6,30.08,WSW,253,0.0,1.0,87,0.00,,---,0.00,VWS V14.01,2013-01-29 10:09:00,
2013-01-29 05:14:00,50.1,46.7,30.08,NW,307,0.0,0.0,88,0.00,,---,0.00,VWS V14.01,2013-01-29 10:14:00,
2013-01-29 05:19:00,50.0,46.6,30.08,WSW,246,0.0,0.0,88,0.00,,---,0.00,VWS V14.01,2013-01-29 10:19:00,
2013-01-29 05:25:00,49.9,46.5,30.08,WSW,255,0.0,0.0,88,0.00,,---,0.00,VWS V14.01,2013-01-29 10:25:00,
2013-01-29 05:30:00,50.0,46.9,30.09,WNW,285,0.0,2.0,89,0.00,,---,0.00,VWS V14.01,2013-01-29 10:30:00,
2013-01-29 05:35:00,50.1,47.0,30.09,West,278,0.0,0.0,89,0.00,,---,0.00,VWS V14.01,2013-01-29 10:35:00,
2013-01-29 05:40:00,50.1,47.0,30.09,SW,218,0.0,1.0,89,0.00,,---,0.00,VWS V14.01,2013-01-29 10:40:00,
2013-01-29 05:45:00,50.3,47.2,30.09,South,172,1.0,1.0,89,0.00,,---,0.00,VWS V14.01,2013-01-29 10:45:00,
2013-01-29 05:50:00,50.6,47.8,30.09,NNW,336,0.0,0.0,90,0.00,,---,0.00,VWS V14.01,2013-01-29 10:50:00,
2013-01-29 05:56:00,50.8,47.7,30.09,SSW,203,0.0,0.0,89,0.00,,---,0.00,VWS V14.01,2013-01-29 10:56:00,
2013-01-29 06:01:00,50.7,47.9,30.09,West,270,0.0,1.0,90,0.00,,---,0.00,VWS V14.01,2013-01-29 11:01:00,
2013-01-29 06:06:00,50.5,47.7,30.09,SSW,200,0.0,0.0,90,0.00,,---,0.00,VWS V14.01,2013-01-29 11:06:00,
2013-01-29 06:11:00,50.7,48.2,30.09,WNW,283,0.0,0.0,91,0.00,,---,0.00,VWS V14.01,2013-01-29 11:11:00,
2013-01-29 06:16:00,50.9,48.1,30.09,WSW,252,0.0,0.0,90,0.00,,---,0.00,VWS V14.01,2013-01-29 11:16:00,
2013-01-29 06:21:00,50.8,48.0,30.10,WSW,254,0.0,0.0,90,0.00,,---,0.00,VWS V14.01,2013-01-29 11:21:00,
2013-01-29 06:27:00,50.8,48.3,30.09,WSW,242,1.0,1.0,91,0.00,,---,0.00,VWS V14.01,2013-01-29 11:27:00,
2013-01-29 06:32:00,50.8,48.0,30.10,WSW,245,0.0,0.0,90,0.00,,---,0.00,VWS V14.01,2013-01-29 11:32:00,
2013-01-29 06:37:00,51.0,48.5,30.10,East,91,0.0,0.0,91,0.00,,---,0.00,VWS V14.01,2013-01-29 11:37:00,
2013-01-29 06:42:00,51.0,48.2,30.10,SSW,203,0.0,0.0,90,0.00,,---,0.00,VWS V14.01,2013-01-29 11:42:00,
2013-01-29 06:47:00,50.9,48.1,30.09,SE,140,0.0,1.0,90,0.00,,---,0.00,VWS V14.01,2013-01-29 11:47:00,
2013-01-29 06:52:00,50.8,48.0,30.09,SE,141,0.0,0.0,90,0.00,,---,0.00,VWS V14.01,2013-01-29 11:52:00,
2013-01-29 06:57:00,50.6,47.8,30.09,SSW,203,0.0,0.0,90,0.00,,---,0.00,VWS V14.01,2013-01-29 11:57:00,
2013-01-29 07:02:00,50.3,47.5,30.09,SW,235,0.0,0.0,90,0.00,,---,0.00,VWS V14.01,2013-01-29 12:02:00,
2013-01-29 07:07:00,50.2,47.7,30.09,East,96,1.0,1.0,91,0.00,,---,0.00,VWS V14.01,2013-01-29 12:07:00,
2013-01-29 07:12:00,50.3,47.8,30.09,SSW,204,0.0,0.0,91,0.00,,---,0.00,VWS V14.01,2013-01-29 12:12:00,
2013-01-29 07:17:00,50.4,47.9,30.10,SW,232,0.0,0.0,91,0.00,,---,0.00,VWS V14.01,2013-01-29 12:17:00,
2013-01-29 07:23:00,50.5,48.0,30.10,West,273,0.0,0.0,91,0.00,,---,0.00,VWS V14.01,2013-01-29 12:23:00,
2013-01-29 07:28:00,50.4,47.9,30.10,SSE,150,0.0,0.0,91,0.00,,---,0.00,VWS V14.01,2013-01-29 12:28:00,
2013-01-29 07:33:00,50.4,47.9,30.10,SSE,150,0.0,0.0,91,0.00,,---,0.00,VWS V14.01,2013-01-29 12:33:00,
2013-01-29 07:38:00,50.3,47.8,30.10,SSW,210,0.0,0.0,91,0.00,,---,0.00,VWS V14.01,2013-01-29 12:38:00,
2013-01-29 07:43:00,50.2,47.7,30.10,SSW,211,0.0,0.0,91,0.00,,---,0.00,VWS V14.01,2013-01-29 12:43:00,
2013-01-29 07:48:00,50.3,47.8,30.11,SSW,210,0.0,0.0,91,0.00,,---,0.00,VWS V14.01,2013-01-29 12:48:00,
2013-01-29 07:53:00,50.6,48.1,30.11,SSE,165,0.0,0.0,91,0.00,,---,0.00,VWS V14.01,2013-01-29 12:53:00,
2013-01-29 07:59:00,50.6,47.8,30.11,WSW,240,0.0,1.0,90,0.00,,---,0.00,VWS V14.01,2013-01-29 12:59:00,
2013-01-29 08:04:00,50.8,48.3,30.11,SW,218,1.0,1.0,91,0.00,,---,0.00,VWS V14.01,2013-01-29 13:04:00,
2013-01-29 08:09:00,51.2,48.4,30.11,SW,232,0.0,0.0,90,0.00,,---,0.00,VWS V14.01,2013-01-29 13:09:00,
2013-01-29 08:14:00,51.6,48.8,30.12,NW,319,0.0,0.0,90,0.00,,---,0.00,VWS V14.01,2013-01-29 13:14:00,
2013-01-29 08:19:00,52.0,49.2,30.12,NNE,14,0.0,1.0,90,0.00,,---,0.00,VWS V14.01,2013-01-29 13:19:00,
2013-01-29 08:24:00,52.5,49.4,30.12,NE,51,1.0,1.0,89,0.00,,---,0.00,VWS V14.01,2013-01-29 13:24:00,
2013-01-29 08:29:00,52.8,49.3,30.12,North,356,1.0,1.0,88,0.00,,---,0.00,VWS V14.01,2013-01-29 13:29:00,
2013-01-29 08:34:00,53.1,49.7,30.12,NE,56,0.0,0.0,88,0.00,,---,0.00,VWS V14.01,2013-01-29 13:34:00,
2013-01-29 08:39:00,53.4,49.9,30.12,NE,53,0.0,0.0,88,0.00,,---,0.00,VWS V14.01,2013-01-29 13:39:00,
2013-01-29 08:44:00,53.8,50.0,30.12,NNW,328,0.0,0.0,87,0.00,,---,0.00,VWS V14.01,2013-01-29 13:44:00,
2013-01-29 08:50:00,54.4,50.6,30.12,NW,325,0.0,0.0,87,0.00,,---,0.00,VWS V14.01,2013-01-29 13:50:00,
2013-01-29 08:55:00,55.3,51.2,30.12,NNE,23,0.0,1.0,86,0.00,,---,0.00,VWS V14.01,2013-01-29 13:55:00,
2013-01-29 09:00:00,56.0,51.6,30.12,North,358,2.0,3.0,85,0.00,,---,0.00,VWS V14.01,2013-01-29 14:00:00,
2013-01-29 09:05:00,56.3,51.5,30.12,SSW,203,0.0,1.0,84,0.00,,---,0.00,VWS V14.01,2013-01-29 14:05:00,
2013-01-29 09:10:00,56.9,51.8,30.12,West,277,2.0,2.0,83,0.00,,---,0.00,VWS V14.01,2013-01-29 14:10:00,
2013-01-29 09:15:00,57.3,51.5,30.12,NW,323,1.0,2.0,81,0.00,,---,0.00,VWS V14.01,2013-01-29 14:15:00,
2013-01-29 09:20:00,57.4,51.6,30.12,SW,229,2.0,3.0,81,0.00,,---,0.00,VWS V14.01,2013-01-29 14:20:00,
2013-01-29 09:25:00,57.5,51.7,30.12,West,276,1.0,2.0,81,0.00,,---,0.00,VWS V14.01,2013-01-29 14:25:00,
2013-01-29 09:30:00,58.0,52.2,30.12,WSW,256,0.0,1.0,81,0.00,,---,0.00,VWS V14.01,2013-01-29 14:30:00,
2013-01-29 09:36:00,58.0,51.5,30.12,NE,46,0.0,0.0,79,0.00,,---,0.00,VWS V14.01,2013-01-29 14:36:00,
2013-01-29 09:41:00,58.0,51.9,30.12,WSW,247,0.0,0.0,80,0.00,,---,0.00,VWS V14.01,2013-01-29 14:41:00,
2013-01-29 09:46:00,58.1,52.0,30.11,North,350,0.0,2.0,80,0.00,,---,0.00,VWS V14.01,2013-01-29 14:46:00,
2013-01-29 09:51:00,58.4,51.9,30.11,WSW,250,0.0,0.0,79,0.00,,---,0.00,VWS V14.01,2013-01-29 14:51:00,
2013-01-29 09:56:00,58.7,52.2,30.12,North,353,0.0,0.0,79,0.00,,---,0.00,VWS V14.01,2013-01-29 14:56:00,
2013-01-29 10:01:00,58.9,52.4,30.12,NNE,18,1.0,3.0,79,0.00,,---,0.00,VWS V14.01,2013-01-29 15:01:00,
2013-01-29 10:06:00,58.7,52.2,30.12,WSW,257,0.0,0.0,79,0.00,,---,0.00,VWS V14.01,2013-01-29 15:06:00,
2013-01-29 10:11:00,58.6,52.1,30.12,North,9,0.0,0.0,79,0.00,,---,0.00,VWS V14.01,2013-01-29 15:11:00,
2013-01-29 10:16:00,58.7,52.2,30.12,NNW,338,0.0,0.0,79,0.00,,---,0.00,VWS V14.01,2013-01-29 15:16:00,
2013-01-29 10:21:00,59.1,52.3,30.12,SW,235,0.0,3.0,78,0.00,,---,0.00,VWS V14.01,2013-01-29 15:21:00,
2013-01-29 10:26:00,59.3,52.5,30.11,NNE,20,0.0,2.0,78,0.00,,---,0.00,VWS V14.01,2013-01-29 15:26:00,
2013-01-29 10:32:00,59.9,53.0,30.11,ESE,103,1.0,1.0,78,0.00,,---,0.00,VWS V14.01,2013-01-29 15:32:00,
2013-01-29 10:37:00,60.1,52.5,30.12,West,277,4.0,4.0,76,0.00,,---,0.00,VWS V14.01,2013-01-29 15:37:00,
2013-01-29 10:42:00,60.3,52.7,30.11,NW,315,0.0,1.0,76,0.00,,---,0.00,VWS V14.01,2013-01-29 15:42:00,
2013-01-29 10:47:00,60.7,52.7,30.11,WNW,287,0.0,2.0,75,0.00,,---,0.00,VWS V14.01,2013-01-29 15:47:00,
2013-01-29 10:52:00,60.9,52.9,30.11,SW,224,1.0,2.0,75,0.00,,---,0.00,VWS V14.01,2013-01-29 15:52:00,
2013-01-29 10:57:00,61.2,53.2,30.11,SE,124,0.0,2.0,75,0.00,,---,0.00,VWS V14.01,2013-01-29 15:57:00,
2013-01-29 11:02:00,61.7,54.1,30.11,SW,235,1.0,2.0,76,0.00,,---,0.00,VWS V14.01,2013-01-29 16:02:00,
2013-01-29 11:07:00,61.7,53.7,30.11,NNE,18,1.0,1.0,75,0.00,,---,0.00,VWS V14.01,2013-01-29 16:07:00,
2013-01-29 11:12:00,61.5,53.5,30.11,North,351,0.0,1.0,75,0.00,,---,0.00,VWS V14.01,2013-01-29 16:12:00,
2013-01-29 11:17:00,61.5,53.2,30.10,SSE,152,0.0,0.0,74,0.00,,---,0.00,VWS V14.01,2013-01-29 16:17:00,
2013-01-29 11:22:00,61.4,53.0,30.10,NW,308,0.0,3.0,74,0.00,,---,0.00,VWS V14.01,2013-01-29 16:22:00,
2013-01-29 11:27:00,61.3,53.3,30.10,SW,232,0.0,1.0,75,0.00,,---,0.00,VWS V14.01,2013-01-29 16:27:00,
2013-01-29 11:32:00,61.2,52.9,30.10,NW,314,0.0,3.0,74,0.00,,---,0.00,VWS V14.01,2013-01-29 16:32:00,
2013-01-29 11:37:00,61.1,53.1,30.10,West,278,1.0,2.0,75,0.00,,---,0.00,VWS V14.01,2013-01-29 16:37:00,
2013-01-29 11:42:00,61.1,52.8,30.10,NNE,24,0.0,0.0,74,0.00,,---,0.00,VWS V14.01,2013-01-29 16:42:00,
2013-01-29 11:47:00,61.4,53.4,30.10,WSW,252,1.0,1.0,75,0.00,,---,0.00,VWS V14.01,2013-01-29 16:47:00,
2013-01-29 11:53:00,61.7,53.3,30.09,ENE,70,0.0,0.0,74,0.00,,---,0.00,VWS V14.01,2013-01-29 16:53:00,
2013-01-29 11:58:00,62.0,53.6,30.08,NNE,13,2.0,2.0,74,0.00,,---,0.00,VWS V14.01,2013-01-29 16:58:00,
2013-01-29 12:03:00,62.2,53.8,30.08,NE,47,2.0,2.0,74,0.00,,---,0.00,VWS V14.01,2013-01-29 17:03:00,
2013-01-29 12:08:00,62.3,54.3,30.08,East,91,3.0,3.0,75,0.00,,---,0.00,VWS V14.01,2013-01-29 17:08:00,
2013-01-29 12:13:00,62.4,53.6,30.07,ENE,70,0.0,0.0,73,0.00,,---,0.00,VWS V14.01,2013-01-29 17:13:00,
2013-01-29 12:18:00,62.9,54.5,30.07,ENE,68,1.0,2.0,74,0.00,,---,0.00,VWS V14.01,2013-01-29 17:18:00,
2013-01-29 12:23:00,63.4,54.6,30.07,SSE,160,0.0,0.0,73,0.00,,---,0.00,VWS V14.01,2013-01-29 17:23:00,
2013-01-29 12:28:00,63.9,54.3,30.06,NNW,336,1.0,1.0,71,0.00,,---,0.00,VWS V14.01,2013-01-29 17:28:00,
2013-01-29 12:33:00,64.2,54.6,30.06,NNW,338,1.0,3.0,71,0.00,,---,0.00,VWS V14.01,2013-01-29 17:33:00,
2013-01-29 12:39:00,64.5,54.5,30.06,West,259,0.0,0.0,70,0.00,,---,0.00,VWS V14.01,2013-01-29 17:39:00,
2013-01-29 12:44:00,64.8,54.8,30.06,WNW,284,0.0,0.0,70,0.00,,---,0.00,VWS V14.01,2013-01-29 17:44:00,
2013-01-29 12:49:00,64.9,54.5,30.05,NNE,25,0.0,2.0,69,0.00,,---,0.00,VWS V14.01,2013-01-29 17:49:00,
2013-01-29 12:54:00,65.2,54.8,30.05,ENE,75,0.0,1.0,69,0.00,,---,0.00,VWS V14.01,2013-01-29 17:54:00,
2013-01-29 12:59:00,65.0,54.2,30.04,ESE,122,0.0,2.0,68,0.00,,---,0.00,VWS V14.01,2013-01-29 17:59:00,
2013-01-29 13:04:00,64.8,54.4,30.05,ESE,120,0.0,2.0,69,0.00,,---,0.00,VWS V14.01,2013-01-29 18:04:00,
2013-01-29 13:09:00,64.7,54.3,30.04,SE,131,1.0,1.0,69,0.00,,---,0.00,VWS V14.01,2013-01-29 18:09:00,
2013-01-29 13:14:00,64.3,54.7,30.04,East,98,0.0,1.0,71,0.00,,---,0.00,VWS V14.01,2013-01-29 18:14:00,
2013-01-29 13:19:00,64.1,54.5,30.04,ESE,107,0.0,1.0,71,0.00,,---,0.00,VWS V14.01,2013-01-29 18:19:00,
2013-01-29 13:24:00,64.0,54.8,30.04,East,85,1.0,1.0,72,0.00,,---,0.00,VWS V14.01,2013-01-29 18:24:00,
2013-01-29 13:29:00,64.0,54.0,30.04,SSE,156,0.0,3.0,70,0.00,,---,0.00,VWS V14.01,2013-01-29 18:29:00,
2013-01-29 13:34:00,63.8,54.2,30.04,SE,129,0.0,1.0,71,0.00,,---,0.00,VWS V14.01,2013-01-29 18:34:00,
2013-01-29 13:40:00,63.8,54.2,30.04,ESE,109,3.0,3.0,71,0.00,,---,0.00,VWS V14.01,2013-01-29 18:40:00,
2013-01-29 13:45:00,63.6,54.4,30.03,ESE,108,1.0,3.0,72,0.00,,---,0.00,VWS V14.01,2013-01-29 18:45:00,
2013-01-29 13:50:00,63.2,54.0,30.03,SE,129,2.0,2.0,72,0.00,,---,0.00,VWS V14.01,2013-01-29 18:50:00,
2013-01-29 13:55:00,62.7,53.5,30.03,ESE,103,3.0,3.0,72,0.00,,---,0.00,VWS V14.01,2013-01-29 18:55:00,
2013-01-29 14:00:00,62.5,53.7,30.03,ESE,115,1.0,2.0,73,0.00,,---,0.00,VWS V14.01,2013-01-29 19:00:00,
2013-01-29 14:05:00,62.5,54.1,30.03,South,186,2.0,2.0,74,0.00,,---,0.00,VWS V14.01,2013-01-29 19:05:00,
2013-01-29 14:10:00,62.5,53.7,30.02,ESE,107,2.0,2.0,73,0.00,,---,0.00,VWS V14.01,2013-01-29 19:10:00,
2013-01-29 14:15:00,62.4,53.6,30.02,SE,139,1.0,2.0,73,0.00,,---,0.00,VWS V14.01,2013-01-29 19:15:00,
2013-01-29 14:20:00,62.5,53.7,30.02,East,101,1.0,3.0,73,0.00,,---,0.00,VWS V14.01,2013-01-29 19:20:00,
2013-01-29 14:26:00,62.5,53.7,30.02,ESE,115,2.0,2.0,73,0.00,,---,0.00,VWS V14.01,2013-01-29 19:26:00,
2013-01-29 14:31:00,62.6,53.8,30.02,SE,129,1.0,1.0,73,0.00,,---,0.00,VWS V14.01,2013-01-29 19:31:00,
2013-01-29 14:36:00,62.5,53.7,30.02,ESE,118,2.0,2.0,73,0.00,,---,0.00,VWS V14.01,2013-01-29 19:36:00,
2013-01-29 14:41:00,62.4,53.6,30.02,SE,129,2.0,2.0,73,0.00,,---,0.00,VWS V14.01,2013-01-29 19:41:00,
2013-01-29 14:46:00,62.1,53.7,30.02,SE,124,2.0,2.0,74,0.00,,---,0.00,VWS V14.01,2013-01-29 19:46:00,
2013-01-29 14:51:00,62.0,53.6,30.02,SE,129,2.0,3.0,74,0.00,,---,0.00,VWS V14.01,2013-01-29 19:51:00,
2013-01-29 14:56:00,62.1,53.7,30.01,SE,128,1.0,3.0,74,0.00,,---,0.00,VWS V14.01,2013-01-29 19:56:00,
2013-01-29 15:01:00,62.1,53.7,30.01,SSE,148,1.0,2.0,74,0.00,,---,0.00,VWS V14.01,2013-01-29 20:01:00,
2013-01-29 15:02:00,62.1,53.7,30.01,SE,134,2.0,4.0,74,0.00,,---,0.00,VWS V14.01,2013-01-29 20:02:00,
2013-01-29 15:07:00,62.2,53.8,30.01,SE,136,2.0,3.0,74,0.00,,---,0.00,VWS V14.01,2013-01-29 20:07:00,
2013-01-29 15:12:00,62.1,53.7,30.01,SE,133,2.0,3.0,74,0.00,,---,0.00,VWS V14.01,2013-01-29 20:12:00,
2013-01-29 15:17:00,62.1,53.7,30.01,ESE,114,3.0,4.0,74,0.00,,---,0.00,VWS V14.01,2013-01-29 20:17:00,
2013-01-29 15:22:00,62.2,53.8,30.01,SE,139,2.0,2.0,74,0.00,,---,0.00,VWS V14.01,2013-01-29 20:22:00,
2013-01-29 15:27:00,62.2,53.8,30.01,SE,124,3.0,3.0,74,0.00,,---,0.00,VWS V14.01,2013-01-29 20:27:00,
2013-01-29 15:33:00,62.2,53.8,30.01,ESE,119,2.0,2.0,74,0.00,,---,0.00,VWS V14.01,2013-01-29 20:33:00,
2013-01-29 15:38:00,62.1,53.7,30.01,East,100,2.0,3.0,74,0.00,,---,0.00,VWS V14.01,2013-01-29 20:38:00,
2013-01-29 15:43:00,62.2,53.5,30.01,ESE,119,3.0,3.0,73,0.00,,---,0.00,VWS V14.01,2013-01-29 20:43:00,
2013-01-29 15:48:00,62.3,53.5,30.01,ESE,113,1.0,2.0,73,0.00,,---,0.00,VWS V14.01,2013-01-29 20:48:00,
2013-01-29 15:53:00,62.2,53.5,30.01,ESE,108,1.0,2.0,73,0.00,,---,0.00,VWS V14.01,2013-01-29 20:53:00,
2013-01-29 15:58:00,62.2,53.8,30.01,ESE,118,2.0,2.0,74,0.00,,---,0.00,VWS V14.01,2013-01-29 20:58:00,
2013-01-29 16:03:00,62.2,53.8,30.01,SE,128,1.0,2.0,74,0.00,,---,0.00,VWS V14.01,2013-01-29 21:03:00,
2013-01-29 16:08:00,62.4,54.0,30.00,SE,126,1.0,3.0,74,0.00,,---,0.00,VWS V14.01,2013-01-29 21:08:00,
2013-01-29 16:13:00,62.6,53.8,30.00,SE,124,2.0,2.0,73,0.00,,---,0.00,VWS V14.01,2013-01-29 21:13:00,
2013-01-29 16:18:00,62.5,53.7,30.00,ESE,114,2.0,3.0,73,0.00,,---,0.00,VWS V14.01,2013-01-29 21:18:00,
2013-01-29 16:23:00,62.3,53.9,30.00,SE,131,1.0,3.0,74,0.00,,---,0.00,VWS V14.01,2013-01-29 21:23:00,
2013-01-29 16:28:00,62.0,53.6,30.00,ESE,120,2.0,2.0,74,0.00,,---,0.00,VWS V14.01,2013-01-29 21:28:00,
2013-01-29 16:33:00,61.9,53.5,30.00,ESE,111,2.0,2.0,74,0.00,,---,0.00,VWS V14.01,2013-01-29 21:33:00,
2013-01-29 16:38:00,61.7,53.3,30.00,SE,134,1.0,1.0,74,0.00,,---,0.00,VWS V14.01,2013-01-29 21:38:00,
2013-01-29 16:44:00,61.6,53.6,30.00,SE,134,2.0,2.0,75,0.00,,---,0.00,VWS V14.01,2013-01-29 21:44:00,
2013-01-29 16:49:00,61.6,53.6,30.00,SSE,159,1.0,1.0,75,0.00,,---,0.00,VWS V14.01,2013-01-29 21:49:00,
2013-01-29 16:54:00,61.7,53.3,30.00,SSE,149,1.0,2.0,74,0.00,,---,0.00,VWS V14.01,2013-01-29 21:54:00,
2013-01-29 16:59:00,61.5,53.5,30.00,ESE,115,2.0,2.0,75,0.00,,---,0.00,VWS V14.01,2013-01-29 21:59:00,
2013-01-29 17:04:00,61.4,53.0,30.00,SSE,147,1.0,2.0,74,0.00,,---,0.00,VWS V14.01,2013-01-29 22:04:00,
2013-01-29 17:09:00,61.0,53.0,30.00,SSE,162,1.0,2.0,75,0.00,,---,0.00,VWS V14.01,2013-01-29 22:09:00,
2013-01-29 17:14:00,60.7,52.7,29.99,SE,128,2.0,2.0,75,0.00,,---,0.00,VWS V14.01,2013-01-29 22:14:00,
2013-01-29 17:19:00,60.6,52.6,30.00,SE,146,1.0,2.0,75,0.00,,---,0.00,VWS V14.01,2013-01-29 22:19:00,
2013-01-29 17:25:00,60.6,52.6,30.00,SE,128,1.0,2.0,75,0.00,,---,0.00,VWS V14.01,2013-01-29 22:25:00,
2013-01-29 17:30:00,60.4,52.8,30.00,SSE,153,1.0,1.0,76,0.00,,---,0.00,VWS V14.01,2013-01-29 22:30:00,
2013-01-29 17:35:00,60.2,52.6,30.00,SE,146,2.0,2.0,76,0.00,,---,0.00,VWS V14.01,2013-01-29 22:35:00,
2013-01-29 17:40:00,60.1,52.5,30.00,SE,129,1.0,2.0,76,0.00,,---,0.00,VWS V14.01,2013-01-29 22:40:00,
2013-01-29 17:45:00,60.1,52.5,30.00,SE,143,2.0,2.0,76,0.00,,---,0.00,VWS V14.01,2013-01-29 22:45:00,
2013-01-29 17:50:00,59.9,52.3,29.99,SSE,158,2.0,3.0,76,0.00,,---,0.00,VWS V14.01,2013-01-29 22:50:00,
2013-01-29 17:55:00,59.7,52.1,29.99,SE,143,1.0,2.0,76,0.00,,---,0.00,VWS V14.01,2013-01-29 22:55:00,
2013-01-29 18:00:00,59.4,51.8,29.99,SSE,161,2.0,2.0,76,0.00,,---,0.00,VWS V14.01,2013-01-29 23:00:00,
2013-01-29 18:06:00,59.4,52.2,29.99,ESE,121,2.0,3.0,77,0.00,,---,0.00,VWS V14.01,2013-01-29 23:06:00,
2013-01-29 18:11:00,59.3,52.1,29.99,SSE,149,1.0,2.0,77,0.00,,---,0.00,VWS V14.01,2013-01-29 23:11:00,
2013-01-29 18:16:00,59.6,52.0,29.99,SSE,149,2.0,2.0,76,0.00,,---,0.00,VWS V14.01,2013-01-29 23:16:00,
2013-01-29 18:21:00,59.4,51.8,29.99,SE,136,3.0,3.0,76,0.00,,---,0.00,VWS V14.01,2013-01-29 23:21:00,
2013-01-29 18:26:00,59.2,52.0,29.99,SSE,159,1.0,2.0,77,0.00,,---,0.00,VWS V14.01,2013-01-29 23:26:00,
2013-01-29 18:31:00,59.2,52.0,29.99,SE,143,1.0,3.0,77,0.00,,---,0.00,VWS V14.01,2013-01-29 23:31:00,
2013-01-29 18:36:00,58.9,51.7,29.99,ESE,111,3.0,3.0,77,0.00,,---,0.00,VWS V14.01,2013-01-29 23:36:00,
2013-01-29 18:41:00,58.9,51.7,29.99,SE,143,2.0,3.0,77,0.00,,---,0.00,VWS V14.01,2013-01-29 23:41:00,
2013-01-29 18:46:00,58.7,51.5,29.99,SSE,155,1.0,1.0,77,0.00,,---,0.00,VWS V14.01,2013-01-29 23:46:00,
2013-01-29 18:52:00,58.5,51.7,29.99,SE,143,1.0,1.0,78,0.00,,---,0.00,VWS V14.01,2013-01-29 23:52:00,
2013-01-29 18:57:00,58.6,51.8,29.99,South,173,1.0,3.0,78,0.00,,---,0.00,VWS V14.01,2013-01-29 23:57:00,
2013-01-29 19:02:00,58.4,51.6,29.99,SSE,154,1.0,3.0,78,0.00,,---,0.00,VWS V14.01,2013-01-30 00:02:00,
2013-01-29 19:07:00,58.2,51.4,29.99,ESE,104,2.0,3.0,78,0.00,,---,0.00,VWS V14.01,2013-01-30 00:07:00,
2013-01-29 19:12:00,58.2,51.4,29.99,SE,128,2.0,2.0,78,0.00,,---,0.00,VWS V14.01,2013-01-30 00:12:00,
2013-01-29 19:17:00,58.1,51.3,29.99,SE,139,2.0,3.0,78,0.00,,---,0.00,VWS V14.01,2013-01-30 00:17:00,
2013-01-29 19:22:00,57.9,51.4,29.99,SE,140,2.0,2.0,79,0.00,,---,0.00,VWS V14.01,2013-01-30 00:22:00,
2013-01-29 19:27:00,57.5,51.0,29.99,East,99,3.0,4.0,79,0.00,,---,0.00,VWS V14.01,2013-01-30 00:27:00,
2013-01-29 19:32:00,57.5,51.0,29.98,SSE,154,1.0,3.0,79,0.00,,---,0.00,VWS V14.01,2013-01-30 00:32:00,
2013-01-29 19:37:00,57.5,51.0,29.98,SE,124,2.0,3.0,79,0.00,,---,0.00,VWS V14.01,2013-01-30 00:37:00,
2013-01-29 19:42:00,57.5,51.0,29.98,East,98,2.0,3.0,79,0.00,,---,0.00,VWS V14.01,2013-01-30 00:42:00,
2013-01-29 19:48:00,57.3,51.2,29.98,ESE,121,3.0,3.0,80,0.00,,---,0.00,VWS V14.01,2013-01-30 00:48:00,
2013-01-29 19:53:00,57.4,51.3,29.99,SE,124,2.0,3.0,80,0.00,,---,0.00,VWS V14.01,2013-01-30 00:53:00,
2013-01-29 19:58:00,57.3,51.2,29.98,SE,124,2.0,4.0,80,0.00,,---,0.00,VWS V14.01,2013-01-30 00:58:00,
2013-01-29 20:03:00,57.6,51.1,29.98,SE,131,2.0,5.0,79,0.00,,---,0.00,VWS V14.01,2013-01-30 01:03:00,
2013-01-29 20:08:00,57.6,51.5,29.98,SE,128,3.0,5.0,80,0.00,,---,0.00,VWS V14.01,2013-01-30 01:08:00,
2013-01-29 20:13:00,57.5,51.4,29.98,ESE,122,5.0,5.0,80,0.00,,---,0.00,VWS V14.01,2013-01-30 01:13:00,
2013-01-29 20:18:00,57.2,51.1,29.98,SE,142,3.0,3.0,80,0.00,,---,0.00,VWS V14.01,2013-01-30 01:18:00,
2013-01-29 20:24:00,56.8,51.0,29.98,SSE,155,3.0,3.0,81,0.00,,---,0.00,VWS V14.01,2013-01-30 01:24:00,
2013-01-29 20:29:00,56.6,50.8,29.98,SE,124,3.0,3.0,81,0.00,,---,0.00,VWS V14.01,2013-01-30 01:29:00,
2013-01-29 20:34:00,56.4,51.0,29.98,SE,140,2.0,3.0,82,0.00,,---,0.00,VWS V14.01,2013-01-30 01:34:00,
2013-01-29 20:39:00,56.4,51.0,29.98,SE,146,3.0,3.0,82,0.00,,---,0.00,VWS V14.01,2013-01-30 01:39:00,
2013-01-29 20:44:00,56.5,51.1,29.98,SE,146,2.0,3.0,82,0.00,,---,0.00,VWS V14.01,2013-01-30 01:44:00,
2013-01-29 20:49:00,56.3,50.9,29.98,SE,125,3.0,4.0,82,0.00,,---,0.00,VWS V14.01,2013-01-30 01:49:00,
2013-01-29 20:54:00,56.6,51.2,29.98,SE,139,3.0,3.0,82,0.00,,---,0.00,VWS V14.01,2013-01-30 01:54:00,
2013-01-29 20:59:00,56.6,51.2,29.97,ESE,115,4.0,4.0,82,0.00,,---,0.00,VWS V14.01,2013-01-30 01:59:00,
2013-01-29 21:04:00,56.7,51.3,29.97,East,92,3.0,4.0,82,0.00,,---,0.00,VWS V14.01,2013-01-30 02:04:00,
2013-01-29 21:10:00,56.8,51.0,29.97,ESE,107,3.0,4.0,81,0.00,,---,0.00,VWS V14.01,2013-01-30 02:10:00,
2013-01-29 21:15:00,56.4,51.0,29.97,SE,130,4.0,4.0,82,0.00,,---,0.00,VWS V14.01,2013-01-30 02:15:00,
2013-01-29 21:20:00,56.3,50.9,29.97,ESE,115,5.0,5.0,82,0.00,,---,0.00,VWS V14.01,2013-01-30 02:20:00,
2013-01-29 21:25:00,56.0,50.9,29.97,ESE,105,4.0,5.0,83,0.00,,---,0.00,VWS V14.01,2013-01-30 02:25:00,
2013-01-29 21:30:00,56.4,51.0,29.97,ESE,122,3.0,4.0,82,0.00,,---,0.00,VWS V14.01,2013-01-30 02:30:00,
2013-01-29 21:35:00,56.1,50.7,29.97,SE,143,3.0,4.0,82,0.00,,---,0.00,VWS V14.01,2013-01-30 02:35:00,
2013-01-29 21:40:00,56.0,50.9,29.97,SE,124,3.0,4.0,83,0.00,,---,0.00,VWS V14.01,2013-01-30 02:40:00,
2013-01-29 21:45:00,55.9,50.8,29.97,SE,132,3.0,3.0,83,0.00,,---,0.00,VWS V14.01,2013-01-30 02:45:00,
2013-01-29 21:50:00,55.8,51.0,29.97,SE,143,3.0,5.0,84,0.00,,---,0.00,VWS V14.01,2013-01-30 02:50:00,
2013-01-29 21:55:00,55.7,51.0,29.97,SE,136,2.0,8.0,84,0.00,,---,0.00,VWS V14.01,2013-01-30 02:55:00,
2013-01-29 22:00:00,55.5,50.8,29.96,SE,128,4.0,4.0,84,0.00,,---,0.00,VWS V14.01,2013-01-30 03:00:00,
2013-01-29 22:06:00,55.2,50.5,29.96,SE,143,3.0,4.0,84,0.00,,---,0.00,VWS V14.01,2013-01-30 03:06:00,
2013-01-29 22:11:00,54.9,50.5,29.96,SE,132,4.0,4.0,85,0.00,,---,0.00,VWS V14.01,2013-01-30 03:11:00,
2013-01-29 22:16:00,55.3,50.9,29.95,ESE,123,2.0,4.0,85,0.00,,---,0.00,VWS V14.01,2013-01-30 03:16:00,
2013-01-29 22:21:00,55.1,50.4,29.95,ESE,119,2.0,4.0,84,0.00,,---,0.00,VWS V14.01,2013-01-30 03:21:00,
2013-01-29 22:26:00,54.9,50.5,29.95,SE,129,3.0,4.0,85,0.00,,---,0.00,VWS V14.01,2013-01-30 03:26:00,
2013-01-29 22:31:00,54.7,50.6,29.95,SE,129,4.0,4.0,86,0.00,,---,0.00,VWS V14.01,2013-01-30 03:31:00,
2013-01-29 22:36:00,54.8,50.4,29.95,SE,133,3.0,4.0,85,0.00,,---,0.00,VWS V14.01,2013-01-30 03:36:00,
2013-01-29 22:41:00,54.7,50.6,29.95,SE,125,4.0,4.0,86,0.00,,---,0.00,VWS V14.01,2013-01-30 03:41:00,
2013-01-29 22:47:00,54.9,50.5,29.95,SE,144,4.0,4.0,85,0.00,,---,0.00,VWS V14.01,2013-01-30 03:47:00,
2013-01-29 22:52:00,54.8,50.4,29.95,ESE,123,3.0,3.0,85,0.00,,---,0.00,VWS V14.01,2013-01-30 03:52:00,
2013-01-29 22:57:00,54.5,50.4,29.95,SE,130,4.0,4.0,86,0.00,,---,0.00,VWS V14.01,2013-01-30 03:57:00,
2013-01-29 23:02:00,54.2,50.1,29.94,ESE,118,4.0,4.0,86,0.00,,---,0.00,VWS V14.01,2013-01-30 04:02:00,
2013-01-29 23:07:00,54.2,50.1,29.94,ESE,112,5.0,5.0,86,0.00,,---,0.00,VWS V14.01,2013-01-30 04:07:00,
2013-01-29 23:12:00,54.5,50.4,29.94,ESE,118,3.0,4.0,86,0.00,,---,0.00,VWS V14.01,2013-01-30 04:12:00,
2013-01-29 23:17:00,54.5,50.4,29.94,SE,133,3.0,4.0,86,0.00,,---,0.00,VWS V14.01,2013-01-30 04:17:00,
2013-01-29 23:22:00,54.4,50.3,29.94,ESE,121,3.0,3.0,86,0.00,,---,0.00,VWS V14.01,2013-01-30 04:22:00,
2013-01-29 23:27:00,54.3,50.2,29.94,SE,140,3.0,3.0,86,0.00,,---,0.00,VWS V14.01,2013-01-30 04:27:00,
2013-01-29 23:32:00,54.3,50.2,29.93,SE,131,2.0,3.0,86,0.00,,---,0.00,VWS V14.01,2013-01-30 04:32:00,
2013-01-29 23:37:00,54.0,49.9,29.93,East,100,2.0,3.0,86,0.00,,---,0.00,VWS V14.01,2013-01-30 04:37:00,
2013-01-29 23:43:00,53.9,49.8,29.93,ESE,122,2.0,2.0,86,0.00,,---,0.00,VWS V14.01,2013-01-30 04:43:00,
2013-01-29 23:48:00,53.8,50.0,29.93,SE,139,2.0,2.0,87,0.00,,---,0.00,VWS V14.01,2013-01-30 04:48:00,
2013-01-29 23:53:00,53.6,50.1,29.94,SE,134,2.0,3.0,88,0.00,,---,0.00,VWS V14.01,2013-01-30 04:53:00,
2013-01-29 23:58:00,53.4,49.6,29.94,SE,143,1.0,3.0,87,0.00,,---,0.00,VWS V14.01,2013-01-30 04:58:00,